Simultaneous Nadir Overpasses (SNOs) Predictions

Prediction of SNOs between NOAA-15 and METOP-C Satellite Orbit:

Table of predicted SNOs for the next 14.0 days since TLE Epoch: 4/1/2023
Index Date (NOAA-15) Time (NOAA-15) Lat,Lon (NOAA-15) SZA (NOAA-15 ) Date (METOP-C) Time (METOP-C) Lat,Lon (METOP-C) SZA (METOP-C ) Distance(km) Time Diff (sec)
1 04/04/2023 16:34:47 -81.07, 149.92 102.83 04/04/2023 16:33:36 -81.09, 150.08 102.83 3.21 71
2 04/04/2023 17:25:22 81.08, -42.83 77.16 04/04/2023 17:24:17 81.08, -42.75 77.14 1.35 65
3 04/04/2023 18:15:48 -81.07, 124.73 102.85 04/04/2023 18:14:58 -81.08, 124.61 102.87 2.60 50
4 04/04/2023 19:06:24 81.09, -68.39 77.11 04/04/2023 19:05:39 81.08, -68.23 77.10 3.21 45
5 04/04/2023 19:56:50 -81.08, 99.18 102.90 04/04/2023 19:56:20 -81.08, 99.13 102.92 1.14 30
6 04/04/2023 20:47:24 81.07, -93.21 77.11 04/04/2023 20:47:00 81.08, -93.34 77.10 2.64 24
7 04/04/2023 21:37:51 -81.08, 73.99 102.92 04/04/2023 21:37:41 -81.09, 74.02 102.91 0.79 10
8 04/04/2023 22:28:26 81.09,-118.77 77.07 04/04/2023 22:28:22 81.08,-118.81 77.06 1.05 4
9 04/04/2023 23:18:53 -81.09, 48.43 102.96 04/04/2023 23:19:03 -81.08, 48.54 102.96 2.44 10
10 04/05/2023 00:09:27 81.08,-143.96 77.05 04/05/2023 00:09:43 81.09,-143.92 77.06 0.91 16
11 04/05/2023 00:59:53 -81.09, 23.24 102.98 04/05/2023 01:00:23 -81.09, 23.43 102.95 3.33 30
12 04/05/2023 01:50:28 81.10,-169.52 77.00 04/05/2023 01:51:04 81.08,-169.40 77.02 2.55 36
13 04/05/2023 02:40:54 -81.09, -1.95 103.01 04/05/2023 02:41:45 -81.08, -2.05 103.00 1.74 51
14 04/05/2023 03:31:28 81.08, 165.66 77.00 04/05/2023 03:32:25 81.09, 165.49 77.02 3.30 57
15 04/05/2023 04:21:55 -81.09, -27.14 103.03 04/05/2023 04:23:06 -81.09, -27.16 103.00 0.85 71



Historial Predications of SNOs between NOAA-15 and METOP-C
